AirNav   Everest Fuels
 
 1029 users online  

2PN9 Sun Company-Radnor Heliport
Radnor, Pennsylvania, USA

GOING TO RADNOR?


FAA INFORMATION EFFECTIVE 18 JUNE 2020

Location

FAA Identifier: 2PN9
Lat/Long: 40-02-49.3940N 075-21-27.6770W
40-02.823233N 075-21.461283W
40.0470539,-75.3576881
(estimated)
Elevation: 425 ft. / 130 m (estimated)
Variation: 11W (1985)
Time zone: UTC -4 (UTC -5 during Standard Time)
Zip code: 19087

Heliport Operations

Heliport use: Private use. Permission required prior to landing
Activation date: 07/1977
Control tower: no
ARTCC: NEW YORK CENTER
FSS: WILLIAMSPORT FLIGHT SERVICE STATION
Attendance: UNATNDD
Wind indicator: yes
Segmented circle: no

Heliport Communications

UNICOM: 123.075
WX AWOS-3 at LOM (7 nm NE): 118.925 (215-646-1068)
WX AWOS-3T at OQN (11 nm W): 121.4 ((610) 692-6190)
WX ASOS at PHL (12 nm SE): PHONE 215-492-9617
WX ASOS at PTW (15 nm NW): 119.425 (610-495-0823)
WX ASOS at PNE (16 nm E): 121.15 (215-677-0146)

Nearby radio navigation aids

VOR radial/distance  VOR name  Freq  Var
PTWr148/14.0POTTSTOWN VORTAC116.5009W
MXEr071/16.3MODENA VORTAC113.2009W
ARDr249/24.1YARDLEY VOR/DME108.2010W
OODr004/24.8WOODSTOWN VORTAC112.8010W
DQOr037/24.9DUPONT VORTAC114.0010W
GXUr286/35.0MC GUIRE VORTAC110.6012W
ETXr164/35.3EAST TEXAS VOR/DME110.2009W
VCNr339/35.5CEDAR LAKE VOR/DME115.2010W

 
NDB name  Hdg/Dist  Freq  Var  ID
AMBLER227/5.827512WING .. -. --.
RAINBOW356/39.136311WRNB .-. -. -...

Heliport Services

Runway Information

Helipad H1

Dimensions: 60 x 60 ft. / 18 x 18 m
Surface: asphalt, in fair condition
60' PAD WITHIN 93' LNDG AREA.
Latitude: 40-02.823233N
Longitude: 075-21.461283W
Elevation: 425.0 ft.
Traffic pattern: leftleft
Markings: none, in fair condition

Heliport Ownership and Management from official FAA records

Ownership: Privately-owned
Owner: SUN COMPANY, INC
100 MATSONFORD ROAD
RADNOR, PA 19087
Manager: RICHARD M. SALZARUIO
4875 S. ISLAND AVE
PHILADELPHIA, PA 19153
Phone 215-365-1000

Additional Remarks

FOR CD CTC PHILADELPHIA APCH AT 800-354-9884.

Instrument Procedures

There are no published instrument procedures at 2PN9.

Some nearby airports with instrument procedures:

KLOM - Wings Field Airport (7 nm NE)
N10 - Perkiomen Valley Airport (10 nm N)
KOQN - Brandywine Regional Airport (11 nm W)
KPHL - Philadelphia International Airport (12 nm SE)
KPTW - Heritage Field Airport (15 nm NW)
KPNE - Northeast Philadelphia Airport (16 nm E)
7N7 - Spitfire Aerodrome (19 nm S)
N47 - Pottstown Municipal Airport (19 nm NW)
 
Loc | Ops | Rwys | IFR | FBO | Links
Com | Nav | Svcs | Stats | Notes
Area around 2PN9 (Sun Company-Radnor Heliport)
 
Road maps at: MapQuest Bing Google
 
Aerial photo
No photo
 
Sectional chart

 
Airport distance calculator
Flying to Sun Company-Radnor Heliport? Find the distance to fly.

From to 2PN9

Sunrise and sunset
Times for 12-Jul-2020
 Local
(UTC-4)
 Zulu
(UTC)
Morning civil twilight05:1209:12
Sunrise05:4509:45
Sunset20:3000:30
Evening civil twilight21:0201:02

Current date and time
Zulu (UTC)  12-Jul-2020 19:49:56
Local (UTC-4)  12-Jul-2020 15:49:56
 
METAR
KLOM 
7nm NE 
121935Z AUTO 23008KT 10SM SCT060 SCT075 SCT100 31/18 A2974 RMK AO2 T03120180
KOQN 
11nm W 
121935Z AUTO 21005KT 10SM SCT110 31/17 A2976 RMK AO2
KPHL 
12nm SE 
121854Z 22012G21KT 10SM SCT065 32/16 A2976 RMK AO2 SLP076 T03220161
KPTW 
14nm NW 
121854Z AUTO 21007KT 8SM FEW060 BKN100 29/17 A2977 RMK AO2 SLP077 T02940167
KPNE 
16nm E 
121854Z 24009KT 10SM SCT065 31/16 A2975 RMK AO2 SLP074 T03110156
TAF
KPHL 
12nm SE 
121726Z 1218/1324 25010KT P6SM SCT050 BKN120 FM122200 24010KT P6SM VCSH BKN050 FM130000 23008KT P6SM -SHRA BKN045 FM130600 31004KT P6SM BKN060 FM131300 29008KT P6SM BKN200
KPNE 
16nm E 
121726Z 1218/1318 27008KT P6SM SCT060 BKN120 FM122200 24006KT P6SM VCSH BKN050 FM130000 25006KT P6SM -SHRA BKN045 FM130600 VRB02KT P6SM BKN060 FM131300 28006KT P6SM BKN200
NOTAMs
Click for the latest NOTAMs
NOTAMs are issued by the DoD/FAA and will open in a separate window not controlled by AirNav.

 

 
 

Would you like to see your business listed on this page?

 If your business provides an interesting product or service to pilots, flight crews, aircraft, or users of the Sun Company-Radnor Heliport, you should consider listing it here.  To start the listing process, click on the button below
 
Add a business
 

Other Pages about Sun Company-Radnor Heliport

Update a link
 
Copyright © AirNav, LLC. All rights reserved. Privacy Policy  Contact